Powrót do katalogu

ONEWEB-0326

AktywnyŁącznośćPO
NORAD 49195·PAYLOAD·🇬🇧 United Kingdom

Wystrzelony Sep 14, 2021 z Baikonur Cosmodrome

Loading…

Następne Przeloty (najbliższe 24 godziny)

TLE

ŚwieżeSource: CelesTrak SupGP

Epoka: Sep 15, 2026, 02:01 UTC

1 49195C 21083K   26258.08456433  .00002575  00000+0  65386-2 0  2584
2 49195  87.9170 317.5975 0002158 103.6112 337.1980 13.18686867    15

Śledź ONEWEB-0326 w czasie rzeczywistym z AllMySat

Download on the App Store